FENGYUN 1C DEB

Satellite information

Favourite Embed

Satellite Type and Status

DEBRISIN ORBIT

Key statistics

Satellite FENGYUN 1C DEB at a glance.

Uptime

9555

Days in orbit

Revolutions

≈ 14.1

Per day

Orbit

SSO

Sun Synchronous Orbit

Inclination

98.7

Latest

Satellite identification and parameters

Extended collection of information and parameters for FENGYUN 1C DEB.

Object identification

Identified? True

Debris? True

Object name: FENGYUN 1C DEB

International designator: 1999-025CVB

Object number (NORAD): 32205

Object ID (CCSDS): 32205

Country: PEOPLES REPUBLIC OF CHINA (PRC)

Current information (Y/N): Y

RCS size: SMALL

Orbital parameters

Period: 101.854 minutes

Inclination: 98.6764 deg

SMA: 7224.591 km

Apoapsis: 854.985 km

Periapsis: 837.928 km

RAAN: 192.6003 deg

Eccentricy: 0.0011805

Argument of periapsis: 39.8762 deg

Mean anomaly: 349.9057 deg

Mean motion: 14.13783206 rev/day

Mean motion (dot): 0.00000186 rev/day2

B* drag term: 0.00012051 1/REarth

Two-line elements (TLE)

Creation date: July 3, 2025, 7:06 a.m.

Reference frame: TEME

Reference center: EARTH

Epoch: July 2, 2025, 11:23 p.m. UTC

TLE line 0: 0 FENGYUN 1C DEB

TLE line 1: 1 32205U 99025CVB 25183.97445416 .00000186 00000-0 12051-3 0 9993

TLE line 2: 2 32205 98.6764 192.6003 0011805 39.8762 349.9057 14.13783206926004

Live tracking on map

Real-time ground track for satellite FENGYUN 1C DEB.

In-orbit conjunctions

A list of the most updated potential collisions computed for object FENGYUN 1C DEB.

Target Orbit TCA Probability of collision Miss distance Type
CZ-6A DEB LEO 2025-01-17 13:20:58 0.0002600645 787.0 (m) DEBRIS

Associated space launch

Chinese polar orbiting meteorological satellite

FENGYUN 1C DEB was lifted into orbit during the mission ‘Long March 4B | Feng Yun 1C’, on board a Long March 4B space rocket.

The launch took place on May 10, 1999, 1:33 a.m. from Launch Complex 7.

For more information about the launch, click the button.

Launch to space Long March 4B | Feng Yun 1C
Long March 4B | Feng Yun 1C

Agency: N/A

Status: Launch Successful

Launch date: May 10, 1999, 1:33 a.m. UTC

Rocket: Long March 4B

Launch pad: Launch Complex 7

Location: Taiyuan Satellite Launch Center, People's Republic of China

...

Latest news about this satellite

There are no fresh news available about this satellite. Check back as we update our databases every day.


Newsletter sign-up

Weekly statistics, charts and insights to help you stay on top of the space industry.